sat.trackr.live / text

‹ back to catalog

STARLINK-36102

NORAD 66849 · 2025-281B

PAYLOAD ACTIVE UNKNOWN

§ Identity

Operator
Country
US
Launch date
2025-12-02
Launch site
AFETR
Launch vehicle
Mass (kg)
RCS (m²)

Purposes: comms

External: N2YO · Heavens-Above · Gunter

§ Orbital elements

Epoch: 2026-05-25T01:31:55.166016Z

Period
94.27 min
Inclination
42.9995°
Eccentricity
0.0000788
Mean motion
15.27583252 rev/d
Perigee alt
482.5 km
Apogee alt
483.6 km
Semi-major
6,861.2 km
B*
4.4358e-4
RAAN
272.3557°
Arg perigee
284.1918°
Mean anomaly
75.8846°
Rev number
2,786

§ Raw data

STARLINK-361021 66849U 25281B   26145.06383294  .00011965  00000+0  44358-3 0  99922 66849  42.9995 272.3557 0000788 284.1918  75.8846 15.27583252 27861

JSON: /api/v1/satellites/66849 · /tle

For live sub-satellite position, see the globe view (requires WebGL).

§ Visibility from observer

Set your observer location to see the next 7 days of passes ≥ 10°. The values pass through the URL so the page stays shareable.

No JS? Fill the form by hand. The geolocation button needs JavaScript.